Regional Weather Roundup
Issued by NWS

Home | Current Version | Previous Version | Text Only | Print | Product List | Glossary On
Versions: 1 2 3 4 5 6 7 8 9 10 11 12 13 14 15 16 17 18 19 20 21 22 23 24 25 26 27 28 29 30 31 32 33 34 35 36 37 38 39 40 41 42 43 44 45 46 47 48 49 50
000
ASUS43 KMPX 160410
RWRMN
WEATHER ROUNDUP FOR MINNESOTA
NATIONAL WEATHER SERVICE TWIN CITIES/CHANHASSEN MN
1000 PM CST MON JAN 15 2018


NOTE: "FAIR" INDICATES FEW OR NO CLOUDS BELOW 12,000 FEET WITH NO
SIGNIFICANT WEATHER AND/OR OBSTRUCTIONS TO VISIBILITY. N/A MEANS
CURRENT SKY AND/OR WEATHER CONDITIONS ARE NOT AVAILABLE.

MNZ060>063-068>070-160500-
   Twin Cities Metro

CITY           SKY/WX    TMP DP  RH WIND       PRES   REMARKS
TWIN CITIES    MOCLDY     2  -4  76 NW15      30.56R WCI -17
ST PAUL        FAIR       2  -5  72 NW13      30.57R WCI -15
CRYSTAL        FAIR       0  -8  69 NW10      30.56R WCI -16
BLAINE         FAIR       1  -6  71 NW8       30.54S WCI -12
LAKEVILLE      CLOUDY     1  -4  78 NW13      30.54R WCI -16
EDEN PRAIRIE   CLOUDY     2  -6  69 NW14      30.56R WCI -16
SOUTH ST PAUL  MOCLDY     4  -3  71 NW13      30.55R WCI -13
LAKE ELMO      FAIR       3   0  85 NW8       30.54R WCI -10
$$
MNZ001>005-007-008-013>017-022>024-027-028-160500-
   Northwest Minnesota

CITY           SKY/WX    TMP DP  RH WIND       PRES   REMARKS
BEMIDJI        CLOUDY    -3  -6  84 N6        30.67R WCI -15
HALLOCK        FAIR     -13 -18  77 N10       30.83S WCI -32
ROSEAU         FAIR     -13 -18  77 CALM      30.77S
WARROAD        FAIR     -11 -17  77 W3        30.76R
CROOKSTON      MOCLDY   -11 -17  77 N13       30.83R HAZE    WCI -32
FOSSTON        CLOUDY   -13 -18  77 NW14      30.73R WCI -35
DETROIT LAKES  CLOUDY   -11 -17  77 NW13      30.69S HAZE    WCI -32
MOORHEAD       CLOUDY   -11 -17  77 N23       30.79S HAZE    WCI -38
PARK RAPIDS    MIX PCPN  -3  -9  75 N13       30.63R WCI -22
MAHNOMEN       CLOUDY   -11 -16  77 N10       30.72R WCI -30
$$
MNZ006-009>011-018-025>026-160500-
   North Central Minnesota

CITY           SKY/WX    TMP DP  RH WIND       PRES   REMARKS
BAUDETTE       FAIR      -9 -13  83 NW9       30.71R WCI -26
FLAG ISLAND    FAIR      -9 -15  77 NW9       30.74S WCI -27
INTL FALLS     CLOUDY     1  -5  75 N8        30.67R WCI -13
WASKISH        CLOUDY    -2  -8  78 N6        30.70R WCI -14
BIG FORK       CLOUDY     0  -6  78 N3        30.64R
LONGVILLE      CLOUDY    -4  -8  84 N7        30.63S WCI -18
GRAND RAPIDS   FLURRIES   0  -3  87 N10       30.63R WCI -16
CRANE LAKE     MOCLDY    -2  -6  84 N3        30.68R
ORR            CLOUDY     1  -4  78 CALM      30.60R
COOK           CLOUDY     1  -2  85 N5        30.62R WCI  -8
WALKER         CLOUDY    -4  -8  82 N8        30.66R WCI -19
$$
MNZ012-019>021-037-160500-
   Northeast Minnesota

CITY           SKY/WX    TMP DP  RH WIND       PRES   REMARKS
DULUTH         CLOUDY     3   0  87 N18       30.50R WCI -17
ELY            CLOUDY     3   0  85 N6        30.57S WCI  -8
HIBBING        CLOUDY     1  -3  83 N10       30.58R WCI -15
EVELETH        CLOUDY     2  -3  79 N6        30.58S WCI  -9
DULUTH HARBOR  CLOUDY    10   5  79 NW10      30.58R WCI  -3
TWO HARBORS    FAIR      10   3  72 N8        30.50R WCI  -1
SILVER BAY     FAIR       9   5  85 N8G17     30.51R WCI  -4
GRAND MARAIS     N/A     16   7  67 N12G28    30.52R WCI   3
G MARAIS ARPRT FLURRIES   7   1  78 N15       30.46S WCI -11
$$
MNZ029>031-032-039>041-046>048-054>057-064-160500-
   West Central Minnesota

CITY           SKY/WX    TMP DP  RH WIND       PRES   REMARKS
FERGUS FALLS   FAIR     -13 -18  77 N9        30.77S WCI -31
WHEATON        CLOUDY    -9 -17  70 NW15G24   30.78R HAZE    WCI -31
MORRIS         CLOUDY   -11 -17  77 NW20G25   30.69S HAZE    WCI -36
ALEXANDRIA     CLOUDY   -11 -16  78 NW10      30.64R WCI -30
ELBOW LAKE     FAIR     -13 -18  79 W10       30.71R WCI -32
WADENA         CLOUDY    -6  -9  84 N12G18    30.64R WCI -24
GLENWOOD       FAIR     -11 -17  77 NW13      30.64R WCI -32
APPLETON       CLOUDY    -9 -17  70 NW16G23   30.73R WCI -32
BENSON         CLEAR    -11 -18  70 N15G23    30.69R WCI -34
ORTONVILLE     CLEAR     -9 -17  70 N17G25    30.73R WCI -33
MADISON        CLOUDY    -6 -13  71 NW21      30.73S WCI -30
WILLMAR        FAIR     -11 -17  77 NW12      30.67R WCI -31
$$
MNZ033>034-036-042>043-049>051-058-059-160500-
   Central Minnesota

CITY           SKY/WX    TMP DP  RH WIND       PRES   REMARKS
ST CLOUD       FAIR      -3  -8  79 N13       30.60R WCI -22
SAUK CENTRE      N/A     -8 -13  76 NW10      30.63R WCI -26
PAYNESVILLE    FAIR      -7 -12  78 NW7       30.63R WCI -21
AITKIN         CLOUDY    -2  -8  78 NW7       30.59S WCI -16
PINE RIVER     CLOUDY    -4  -8  84 N10G18    30.64S WCI -21
BRAINERD       CLOUDY     0  -6  76 N13       30.62R WCI -18
STAPLES        CLOUDY    -6  -9  84 N8        30.63R WCI -21
LONG PRAIRIE   FAIR      -6  -9  84 NW12G18   30.61S WCI -24
LITTLE FALLS   CLOUDY     0  -9  65 N9        30.63R WCI -16
LITCHFIELD     MOCLDY    -6 -11  77 NW10      30.61R WCI -23
BUFFALO        FAIR       0  -6  76 NW10      30.60R WCI -17
MAPLE LAKE     FAIR       1  -4  78 MISG      30.60R
HUTCHINSON     MOCLDY    -4 -11  74 NW15      30.61R WCI -25
$$
MNZ037-044-045-052-053-160500-
   East Central Minnesota

CITY           SKY/WX    TMP DP  RH WIND       PRES   REMARKS
PRINCETON      FAIR       1  -6  71 NW8       30.57R WCI -12
MORA           FAIR       3  -2  78 N8G17     30.57R WCI -10
CAMBRIDGE      FAIR       5  -4  66 NW12      30.56R WCI -11
RUSH CITY      CLOUDY     5  -1  76 NW10G20   30.55R WCI -10
MOOSE LAKE     CLOUDY     5   0  78 N10G17    30.55R WCI -10
HINCKLEY       FAIR       5   0  78 N15G21    30.55R WCI -13
CLOQUET        CLOUDY     3   0  85 N16G24    30.54R WCI -16
MCGREGOR       CLOUDY     3   0  85 N10G17    30.60R WCI -12
$$
MNZ071>073-080-081-089-090-097-098-160500-
   Southwest Minnesota

CITY           SKY/WX    TMP DP  RH WIND       PRES   REMARKS
MONTEVIDEO     CLOUDY    -9 -17  70 N17       30.71R WCI -33
GRANITE FALLS  MOCLDY    -8 -14  73 NW14G22   30.72R WCI -28
CANBY          CLOUDY    -6 -12  74 W17G24    30.72S WCI -29
MARSHALL       LGT SNOW -10 -15  78 NW23      30.68R WCI -37
REDWOOD FALLS  CLOUDY    -9 -15  75 NW13G21   30.67R WCI -29
OLIVIA         PTCLDY    -8 -15  71 NW14      30.66R WCI -28
PIPESTONE      MOCLDY    -8 -15  71 N14G22    30.60S HAZE    WCI -28
WINDOM         CLOUDY    -9 -24  49 NW23      30.58S HAZE    WCI -36
WORTHINGTON    CLOUDY    -9 -15  75 N23G29    30.59S WCI -35
JACKSON        CLOUDY    -9 -17  70 NW23G30   30.57S WCI -36
SLAYTON        CLOUDY   -10 -16  76 NW17G23   30.61R HAZE    WCI -34
$$
MNZ065>067-074>077-082>085-091>093-160500-
   South Central Minnesota

CITY           SKY/WX    TMP DP  RH WIND       PRES   REMARKS
MANKATO        LGT SNOW  -7 -12  79 NW17      30.58R WCI -30
NEW ULM        CLOUDY    -9 -17  70 NW18      30.62R WCI -33
ST JAMES       LGT SNOW  -8 -15  71 NW17G23   30.62S WCI -31
FAIRMONT       FLURRIES  -9 -15  75 NW20G29   30.59R WCI -34
FARIBAULT      FLURRIES   1  -4  78 NW8       30.54R WCI -12
OWATONNA       FLURRIES  -2  -8  78 NW13      30.52R WCI -21
WASECA         LGT SNOW  -4  -8  84 NW12      30.56R WCI -22
ALBERT LEA     CLOUDY    -8 -15  71 NW12G17   30.51R HAZE    WCI -27
$$
MNZ078>079-086>088-094>096-160500-
   Southeast Minnesota

CITY           SKY/WX    TMP DP  RH WIND       PRES   REMARKS
ROCHESTER      LGT SNOW   0  -4  83 NW16      30.45R FOG     WCI -20
RED WING       FLURRIES   7  -2  66 NW7       30.52R WCI  -5
STANTON        LGT SNOW   4  -2  77 NW10      30.53R WCI -11
DODGE CENTER   LGT SNOW   0  -6  78 NW13      30.47R WCI -18
WINONA         CLOUDY    10   3  72 NW10G18     N/A  WCI  -3
AUSTIN         LGT SNOW  -6 -11  77 NW13      30.48R WCI -25
PRESTON        FLURRIES  -1  -6  80 NW12      30.44R WCI -19
$$
ABBREVIATIONS USED IN REMARKS
   TC - TEMPERATURES IN CELSIUS
  WCI - WIND CHILL INDEX
   HX - HEAT INDEX
  VSB - VISIBILITY
$$




USA.gov is the U.S. government's official web portal to all federal, state and local government web resources and services.